Satellite: AO-51
Catalog number: 28375
Epoch time:      05075.74224390
Element set:    0208
Inclination:      098.2228 deg
RA of node:       141.9219 deg
Eccentricity:    0.0084661
Arg of perigee:   149.7210 deg
Mean anomaly:     210.8919 deg
Mean motion:   14.40442050 rev/day
Decay rate:       1.70e-06 rev/day^2
Epoch rev:           03731
Checksum:              282

/EX
SB KEPS @ AMSAT  $ORB05076.W
Orbital Elements  05076.WEATHER

HR AMSAT ORBITAL ELEMENTS FOR WEATHER SATELLITES
FROM WA5QGD FORT WORTH,TX March 17, 2005
SEND SUBSCRIBE/UNSUBSCRIBE TO majordomo@amsat.org ONLY
BID: ORB05076.W
TO ALL RADIO AMATEURS BT

Satellite: NOAA-10
Catalog number: 16969
Epoch time:      05075.57978837
Element set:    0653
Inclination:      098.7663 deg
RA of node:       081.1163 deg
Eccentricity:    0.0013164
Arg of perigee:   046.0246 deg
Mean anomaly:     314.2096 deg
Mean motion:   14.27244460 rev/day
Decay rate:      -1.10e-06 rev/day^2
Epoch rev:           96188
Checksum:              317

Satellite: NOAA-11
Catalog number: 19531
Epoch time:      05074.09121950
Element set:    0504
Inclination:      098.8473 deg
RA of node:       161.9706 deg
Eccentricity:    0.0011423
Arg of perigee:   210.4986 deg
Mean anomaly:     149.5549 deg
Mean motion:   14.14745523 rev/day
Decay rate:       -4.1e-07 rev/day^2
Epoch rev:           84962
Checksum:              302

Satellite: NOAA-12
Catalog number: 21263
Epoch time:      05075.94587660
Element set:    0997
Inclination:      098.6975 deg
RA of node:       067.0709 deg
Eccentricity:    0.0012527
Arg of perigee:   341.6917 deg
Mean anomaly:     018.3856 deg
Mean motion:   14.25453668 rev/day
Decay rate:        9.8e-07 rev/day^2
Epoch rev:           71910
Checksum:              346

Satellite: MET-3/5
Catalog number: 21655
Epoch time:      05075.41851886
Element set:    0768
Inclination:      082.5551 deg
RA of node:       224.1756 deg
Eccentricity:    0.0014366
Arg of perigee:   104.9289 deg
Mean anomaly:     255.3364 deg
Mean motion:   13.17000302 rev/day
Decay rate:        5.1e-07 rev/day^2
Epoch rev:           65310
Checksum:              289

Satellite: MET-2/21
Catalog number: 22782
Epoch time:      05075.92205970
Element set:    0155
Inclination:      082.5521 deg
RA of node:       334.1817 deg
Eccentricity:    0.0022985
Arg of perigee:   025.5852 deg
Mean anomaly:     334.6440 deg
Mean motion:   13.83583892 rev/day
Decay rate:       1.03e-06 rev/day^2
Epoch rev:           58281
Checksum:              303

Satellite: OKEAN-4
Catalog number: 23317
Epoch time:      05075.65688204
Element set:    0577
Inclination:      082.5429 deg
RA of node:       343.6625 deg
Eccentricity:    0.0024145
Arg of perigee:   081.2973 deg
Mean anomaly:     279.1004 deg
Mean motion:   14.82092795 rev/day
Decay rate:       6.28e-06 rev/day^2
Epoch rev:           56220
Checksum:              311

Satellite: NOAA-14
Catalog number: 23455
Epoch time:      05075.91764252
Element set:    0524
Inclination:      099.1034 deg
RA of node:       122.6926 deg
Eccentricity:    0.0008517
Arg of perigee:   258.0821 deg
Mean anomaly:     101.9386 deg
Mean motion:   14.13544092 rev/day
Decay rate:      -1.71e-06 rev/day^2
Epoch rev:           52646
Checksum:              293

Satellite: SICH-1
Catalog number: 23657
Epoch time:      05075.68201343
Element set:    0379
Inclination:      082.5270 deg
RA of node:       124.4829 deg
Eccentricity:    0.0025834
Arg of perigee:   068.4539 deg
Mean anomaly:     291.9454 deg
Mean motion:   14.81110138 rev/day
Decay rate:       4.38e-06 rev/day^2
Epoch rev:           51426
Checksum:              303

Satellite: NOAA-15
Catalog number: 25338
Epoch time:      05075.70475063
Element set:    0967
Inclination:      098.5168 deg
RA of node:       086.8433 deg
Eccentricity:    0.0009584
Arg of perigee:   269.7636 deg
Mean anomaly:     090.2444 deg
Mean motion:   14.24494103 rev/day
Decay rate:        4.9e-07 rev/day^2
Epoch rev:           35558
Checksum:              337

Satellite: RESURS
Catalog number: 25394
Epoch time:      05075.95827779
Element set:    0044
Inclination:      098.5478 deg
RA of node:       147.7618 deg
Eccentricity:    0.0002395
Arg of perigee:   078.5271 deg
Mean anomaly:     281.6176 deg
Mean motion:   14.24055230 rev/day
Decay rate:        3.7e-07 rev/day^2
Epoch rev:           34732
Checksum:              322

Satellite: FENGYUN1
Catalog number: 25730
Epoch time:      05075.43553052
Element set:    0369
Inclination:      098.6076 deg
RA of node:       080.9253 deg
Eccentricity:    0.0014733
Arg of perigee:   008.9899 deg
Mean anomaly:     351.1538 deg
Mean motion:   14.11789989 rev/day
Decay rate:        2.2e-07 rev/day^2
Epoch rev:           30142
Checksum:              311

Satellite: OKEAN-0
Catalog number: 25860
Epoch time:      05075.66080253
Element set:    0384
Inclination:      097.7676 deg
RA of node:       105.5807 deg
Eccentricity:    0.0001857
Arg of perigee:   111.9286 deg
Mean anomaly:     248.2122 deg
Mean motion:   14.73219232 rev/day
Decay rate:       2.08e-06 rev/day^2
Epoch rev:           30438
Checksum:              293

Satellite: NOAA-16
Catalog number: 26536
Epoch time:      05075.68985405
Element set:    0276
Inclination:      099.0038 deg
RA of node:       033.6521 deg
Eccentricity:    0.0010359
Arg of perigee:   333.3342 deg
Mean anomaly:     026.7278 deg
Mean motion:   14.12217642 rev/day
Decay rate:       -1.1e-07 rev/day^2
Epoch rev:           23100
Checksum:              276

